Simultaneous Nadir Overpasses (SNOs) Predictions

Prediction of SNOs between GOES-14 and NPP Satellite Orbit:

Table of predicted SNOs for the next 14.0 days since TLE Epoch: 3/11/2023
Index Date Time (GOES-14) GOES-14 Lat,Lon NPP Lat,Lon Distance(km) Time Diff (sec)
1 03/11/2023 08:41:08 0.10,-107.87 0.14,-108.13 29.67 80
2 03/12/2023 08:19:44 0.10,-107.87 -0.85,-103.60 486.60 80
3 03/13/2023 20:41:43 -0.11,-107.93 -0.30,-108.92 111.80 80
4 03/14/2023 20:25:40 -0.11,-107.93 0.69,-104.38 404.92 80
5 03/16/2023 08:47:29 0.12,-107.89 0.53,-109.65 200.03 80
6 03/17/2023 08:26:06 0.12,-107.89 -0.47,-105.12 315.82 80
7 03/18/2023 20:48:04 -0.13,-107.93 -0.71,-110.42 284.09 80
8 03/19/2023 20:32:02 -0.13,-107.94 0.35,-105.90 232.76 80
9 03/21/2023 08:53:51 0.13,-107.92 0.85,-111.17 370.37 80
10 03/22/2023 08:32:27 0.13,-107.92 -0.16,-106.64 145.85 80
11 03/23/2023 20:54:25 -0.13,-107.95 -1.06,-111.94 454.77 80
12 03/24/2023 20:38:22 -0.13,-107.96 0.02,-107.42 62.40 80
